Time,TemperatureF,DewpointF,PressureIn,WindDirection,WindDirectionDegrees,WindSpeedMPH,WindSpeedGustMPH,Humidity,HourlyPrecipIn,Conditions,Clouds,dailyrainin,SoftwareType,DateUTC
2013-02-20 00:00:00,34.5,22.1,29.65,SW,225,3.1,4.0,60,0.00,,SCT039,42.17,VWS V14.01,2013-02-20 05:00:00,
2013-02-20 00:06:00,34.3,20.7,29.65,SW,225,6.7,6.7,57,0.00,,SCT039,42.17,VWS V14.01,2013-02-20 05:06:00,
2013-02-20 00:11:00,34.2,20.1,29.65,WNW,292,11.6,11.6,56,0.00,,SCT039,42.17,VWS V14.01,2013-02-20 05:11:00,
2013-02-20 00:16:00,34.2,20.5,29.65,West,270,11.6,11.6,57,0.00,,SCT039,42.17,VWS V14.01,2013-02-20 05:16:00,
2013-02-20 00:21:00,34.0,19.5,29.65,NW,315,8.1,8.1,55,0.00,,SCT039,42.17,VWS V14.01,2013-02-20 05:21:00,
2013-02-20 00:26:00,33.8,19.8,29.68,West,270,5.4,5.4,56,0.00,,SCT039,42.17,VWS V14.01,2013-02-20 05:26:00,
2013-02-20 00:31:00,33.6,18.8,29.68,SW,225,3.1,5.8,54,0.00,,SCT039,42.17,VWS V14.01,2013-02-20 05:31:00,
2013-02-20 00:36:00,33.6,18.3,29.68,WSW,248,8.1,8.1,53,0.00,,SCT039,42.17,VWS V14.01,2013-02-20 05:36:00,
2013-02-20 00:41:00,33.6,18.8,29.68,West,270,4.0,7.2,54,0.00,,CLR,42.17,VWS V14.01,2013-02-20 05:41:00,
2013-02-20 00:46:00,33.3,18.9,29.68,SW,225,6.3,6.3,55,0.00,,CLR,42.17,VWS V14.01,2013-02-20 05:46:00,
2013-02-20 00:51:00,33.3,18.4,29.68,SSW,202,9.8,9.8,54,0.00,,CLR,42.17,VWS V14.01,2013-02-20 05:51:00,
2013-02-20 00:56:00,33.1,17.8,29.68,SW,225,7.2,10.7,53,0.00,,CLR,42.17,VWS V14.01,2013-02-20 05:56:00,
2013-02-20 01:01:00,33.1,17.8,29.68,SSW,202,7.6,7.6,53,0.00,,CLR,42.17,VWS V14.01,2013-02-20 06:01:00,
2013-02-20 01:06:00,32.9,17.7,29.68,WNW,292,6.7,6.7,53,0.00,,CLR,42.17,VWS V14.01,2013-02-20 06:06:00,
2013-02-20 01:11:00,33.1,16.9,29.68,West,270,7.6,7.6,51,0.00,,CLR,42.17,VWS V14.01,2013-02-20 06:11:00,
2013-02-20 01:16:00,32.7,17.0,29.68,WSW,248,8.1,8.1,52,0.00,,CLR,42.17,VWS V14.01,2013-02-20 06:16:00,
2013-02-20 01:21:00,32.5,17.3,29.68,WSW,248,4.9,4.9,53,0.00,,CLR,42.17,VWS V14.01,2013-02-20 06:21:00,
2013-02-20 01:26:00,32.5,16.4,29.68,WNW,292,6.3,6.3,51,0.00,,CLR,42.17,VWS V14.01,2013-02-20 06:26:00,
2013-02-20 01:31:00,32.4,16.7,29.65,West,270,7.6,7.6,52,0.00,,CLR,42.17,VWS V14.01,2013-02-20 06:31:00,
2013-02-20 01:36:00,32.2,16.5,29.65,West,270,6.3,6.3,52,0.00,,CLR,42.17,VWS V14.01,2013-02-20 06:36:00,
2013-02-20 01:41:00,31.8,16.6,29.65,WNW,292,4.0,4.0,53,0.00,,CLR,42.17,VWS V14.01,2013-02-20 06:41:00,
2013-02-20 01:46:00,31.8,16.6,29.68,SSW,202,8.1,8.1,53,0.00,,CLR,42.17,VWS V14.01,2013-02-20 06:46:00,
2013-02-20 01:51:00,32.0,16.4,29.68,NW,315,6.7,6.7,52,0.00,,CLR,42.17,VWS V14.01,2013-02-20 06:51:00,
2013-02-20 01:56:00,32.0,16.8,29.68,SW,225,7.2,7.2,53,0.00,,CLR,42.17,VWS V14.01,2013-02-20 06:56:00,
2013-02-20 02:02:00,31.6,16.5,29.68,NW,315,4.9,4.9,53,0.00,,CLR,42.17,VWS V14.01,2013-02-20 07:02:00,
2013-02-20 02:07:00,31.5,16.3,29.68,WSW,248,4.9,6.3,53,0.00,,CLR,42.17,VWS V14.01,2013-02-20 07:07:00,
2013-02-20 02:12:00,31.3,16.1,29.68,SSW,202,4.9,6.3,53,0.00,,CLR,42.17,VWS V14.01,2013-02-20 07:12:00,
2013-02-20 02:17:00,31.3,16.1,29.68,WSW,248,7.2,8.5,53,0.00,,CLR,42.17,VWS V14.01,2013-02-20 07:17:00,
2013-02-20 02:22:00,31.3,16.1,29.68,WSW,248,6.3,7.2,53,0.00,,CLR,42.17,VWS V14.01,2013-02-20 07:22:00,
2013-02-20 02:27:00,30.9,16.2,29.68,SW,225,6.7,6.7,54,0.00,,CLR,42.17,VWS V14.01,2013-02-20 07:27:00,
2013-02-20 02:32:00,30.9,16.2,29.68,West,270,7.2,7.2,54,0.00,,CLR,42.17,VWS V14.01,2013-02-20 07:32:00,
2013-02-20 02:37:00,30.6,15.9,29.68,WSW,248,4.9,7.6,54,0.00,,CLR,42.17,VWS V14.01,2013-02-20 07:37:00,
2013-02-20 02:42:00,30.6,15.9,29.68,West,270,4.0,8.5,54,0.00,,CLR,42.17,VWS V14.01,2013-02-20 07:42:00,
2013-02-20 02:47:00,30.6,15.9,29.68,SW,225,5.4,5.4,54,0.00,,CLR,42.17,VWS V14.01,2013-02-20 07:47:00,
2013-02-20 02:52:00,30.4,16.2,29.68,SW,225,7.6,7.6,55,0.00,,CLR,42.17,VWS V14.01,2013-02-20 07:52:00,
2013-02-20 02:57:00,30.2,16.0,29.68,SW,225,6.3,11.2,55,0.00,,CLR,42.17,VWS V14.01,2013-02-20 07:57:00,
2013-02-20 03:05:00,30.2,16.0,29.68,WSW,248,5.8,5.8,55,0.00,,CLR,42.17,VWS V14.01,2013-02-20 08:05:00,
2013-02-20 03:10:00,30.2,16.0,29.68,SW,225,6.3,9.4,55,0.00,,CLR,42.17,VWS V14.01,2013-02-20 08:10:00,
2013-02-20 03:15:00,30.0,15.4,29.68,West,270,4.9,4.9,54,0.00,,CLR,42.17,VWS V14.01,2013-02-20 08:15:00,
2013-02-20 03:20:00,30.0,15.8,29.68,WSW,248,7.6,7.6,55,0.00,,CLR,42.17,VWS V14.01,2013-02-20 08:20:00,
2013-02-20 03:25:00,29.8,15.7,29.68,West,270,6.7,7.2,55,0.00,,CLR,42.17,VWS V14.01,2013-02-20 08:25:00,
2013-02-20 03:30:00,29.8,15.7,29.68,WSW,248,5.4,7.6,55,0.00,,CLR,42.17,VWS V14.01,2013-02-20 08:30:00,
2013-02-20 03:35:00,29.5,15.3,29.68,SW,225,8.1,8.1,55,0.00,,CLR,42.17,VWS V14.01,2013-02-20 08:35:00,
2013-02-20 03:40:00,29.5,15.7,29.68,WSW,248,5.8,5.8,56,0.00,,CLR,42.17,VWS V14.01,2013-02-20 08:40:00,
2013-02-20 03:45:00,29.5,15.7,29.71,SW,225,5.4,5.4,56,0.00,,CLR,42.17,VWS V14.01,2013-02-20 08:45:00,
2013-02-20 03:50:00,29.3,15.6,29.71,SW,225,7.2,7.2,56,0.00,,CLR,42.17,VWS V14.01,2013-02-20 08:50:00,
2013-02-20 03:55:00,29.3,15.1,29.71,West,270,5.4,5.4,55,0.00,,CLR,42.17,VWS V14.01,2013-02-20 08:55:00,
2013-02-20 04:00:00,29.3,15.6,29.71,SW,225,4.9,6.3,56,0.00,,CLR,42.17,VWS V14.01,2013-02-20 09:00:00,
2013-02-20 04:05:00,29.3,15.1,29.71,SW,225,4.9,6.3,55,0.00,,CLR,42.17,VWS V14.01,2013-02-20 09:05:00,
2013-02-20 04:10:00,29.1,15.0,29.71,SW,225,3.1,9.8,55,0.00,,CLR,42.17,VWS V14.01,2013-02-20 09:10:00,
2013-02-20 04:15:00,29.1,15.0,29.71,SW,225,7.2,7.2,55,0.00,,CLR,42.17,VWS V14.01,2013-02-20 09:15:00,
2013-02-20 04:20:00,29.1,15.0,29.71,West,270,10.7,10.7,55,0.00,,CLR,42.17,VWS V14.01,2013-02-20 09:20:00,
2013-02-20 04:25:00,28.9,14.8,29.71,SW,225,5.4,5.4,55,0.00,,CLR,42.17,VWS V14.01,2013-02-20 09:25:00,
2013-02-20 04:30:00,28.8,15.1,29.71,West,270,4.0,4.0,56,0.00,,CLR,42.17,VWS V14.01,2013-02-20 09:30:00,
2013-02-20 04:35:00,28.8,15.5,29.71,NW,315,6.7,6.7,57,0.00,,CLR,42.17,VWS V14.01,2013-02-20 09:35:00,
2013-02-20 04:40:00,29.1,15.8,29.74,West,270,2.7,4.0,57,0.00,,CLR,42.17,VWS V14.01,2013-02-20 09:40:00,
2013-02-20 04:45:00,29.1,15.8,29.74,NW,315,5.8,5.8,57,0.00,,CLR,42.17,VWS V14.01,2013-02-20 09:45:00,
2013-02-20 04:50:00,29.1,15.8,29.74,WNW,292,6.3,7.2,57,0.00,,CLR,42.17,VWS V14.01,2013-02-20 09:50:00,
2013-02-20 04:55:00,29.1,15.8,29.71,West,270,5.8,5.8,57,0.00,,CLR,42.17,VWS V14.01,2013-02-20 09:55:00,
2013-02-20 05:00:00,29.3,16.0,29.71,WSW,248,4.5,4.5,57,0.00,,CLR,42.17,VWS V14.01,2013-02-20 10:00:00,
2013-02-20 05:05:00,29.3,16.0,29.71,WNW,292,4.0,4.0,57,0.00,,CLR,42.17,VWS V14.01,2013-02-20 10:05:00,
2013-02-20 05:10:00,29.1,15.0,29.74,WNW,292,5.4,5.4,55,0.00,,CLR,42.17,VWS V14.01,2013-02-20 10:10:00,
2013-02-20 05:15:00,28.9,14.8,29.74,NNW,338,0.0,4.0,55,0.00,,CLR,42.17,VWS V14.01,2013-02-20 10:15:00,
2013-02-20 05:20:00,28.6,14.5,29.74,ENE,68,4.9,4.9,55,0.00,,CLR,42.17,VWS V14.01,2013-02-20 10:20:00,
2013-02-20 05:25:00,28.6,14.5,29.74,SSW,202,0.0,4.9,55,0.00,,CLR,42.17,VWS V14.01,2013-02-20 10:25:00,
2013-02-20 05:30:00,28.6,14.1,29.74,West,270,4.9,6.3,54,0.00,,CLR,42.17,VWS V14.01,2013-02-20 10:30:00,
2013-02-20 05:35:00,28.4,14.3,29.74,SSW,202,5.4,5.4,55,0.00,,CLR,42.17,VWS V14.01,2013-02-20 10:35:00,
2013-02-20 05:40:00,28.4,14.3,29.74,West,270,7.2,7.2,55,0.00,,CLR,42.17,VWS V14.01,2013-02-20 10:40:00,
2013-02-20 05:45:00,28.2,14.1,29.74,WSW,248,0.0,0.0,55,0.00,,OVC050,42.17,VWS V14.01,2013-02-20 10:45:00,
2013-02-20 05:50:00,28.2,14.1,29.74,SW,225,3.1,4.5,55,0.00,,OVC050,42.17,VWS V14.01,2013-02-20 10:50:00,
2013-02-20 05:55:00,28.0,13.6,29.74,WNW,292,11.6,11.6,54,0.00,,OVC050,42.17,VWS V14.01,2013-02-20 10:55:00,
2013-02-20 06:00:00,28.2,13.3,29.74,WNW,292,4.9,5.8,53,0.00,,OVC050,42.17,VWS V14.01,2013-02-20 11:00:00,
2013-02-20 06:05:00,28.0,12.7,29.74,WSW,248,8.5,8.5,52,0.00,,OVC050,42.17,VWS V14.01,2013-02-20 11:05:00,
2013-02-20 06:10:00,27.9,12.5,29.74,WNW,292,4.9,4.9,52,0.00,,OVC050,42.17,VWS V14.01,2013-02-20 11:10:00,
2013-02-20 06:15:00,27.9,12.5,29.74,WNW,292,6.3,6.3,52,0.00,,OVC050,42.17,VWS V14.01,2013-02-20 11:15:00,
2013-02-20 06:20:00,27.9,12.5,29.74,South,180,3.1,3.1,52,0.00,,OVC050,42.17,VWS V14.01,2013-02-20 11:20:00,
2013-02-20 06:25:00,27.9,12.5,29.71,WSW,248,5.8,6.7,52,0.00,,OVC050,42.17,VWS V14.01,2013-02-20 11:25:00,
2013-02-20 06:30:00,27.9,12.5,29.71,SW,225,4.5,7.2,52,0.00,,OVC050,42.17,VWS V14.01,2013-02-20 11:30:00,
2013-02-20 06:36:00,27.7,12.4,29.71,SW,225,0.0,0.0,52,0.00,,OVC050,42.17,VWS V14.01,2013-02-20 11:36:00,
2013-02-20 06:41:00,27.7,12.4,29.74,West,270,5.4,6.3,52,0.00,,OVC043,42.17,VWS V14.01,2013-02-20 11:41:00,
2013-02-20 06:46:00,27.7,11.9,29.74,South,180,5.4,8.1,51,0.00,,OVC043,42.17,VWS V14.01,2013-02-20 11:46:00,
2013-02-20 06:51:00,27.5,11.8,29.74,SW,225,6.3,8.5,51,0.00,,OVC043,42.17,VWS V14.01,2013-02-20 11:51:00,
2013-02-20 06:56:00,27.5,11.8,29.74,SW,225,4.9,7.2,51,0.00,,OVC043,42.17,VWS V14.01,2013-02-20 11:56:00,
2013-02-20 07:01:00,27.5,11.3,29.74,NNW,338,3.1,3.1,50,0.00,,OVC043,42.17,VWS V14.01,2013-02-20 12:01:00,
2013-02-20 07:06:00,27.3,11.1,29.74,SW,225,5.4,8.5,50,0.00,,OVC043,42.17,VWS V14.01,2013-02-20 12:06:00,
2013-02-20 07:11:00,27.1,11.0,83.15,NNE,22,4.5,4.5,50,0.00,,OVC043,42.17,VWS V14.01,2013-02-20 12:11:00,
2013-02-20 07:16:00,27.1,11.4,29.74,SW,225,6.7,6.7,51,0.00,,OVC043,42.17,VWS V14.01,2013-02-20 12:16:00,
2013-02-20 07:21:00,27.1,11.0,29.74,West,270,7.6,7.6,50,0.00,,OVC043,42.17,VWS V14.01,2013-02-20 12:21:00,
2013-02-20 07:26:00,27.3,11.6,29.74,SW,225,5.4,5.4,51,0.00,,OVC043,42.17,VWS V14.01,2013-02-20 12:26:00,
2013-02-20 07:31:00,27.3,11.1,29.74,NNW,338,7.6,7.6,50,0.00,,OVC043,42.17,VWS V14.01,2013-02-20 12:31:00,
2013-02-20 07:36:00,27.1,11.0,29.74,SW,225,9.4,9.4,50,0.00,,OVC043,42.17,VWS V14.01,2013-02-20 12:36:00,
2013-02-20 07:41:00,27.1,11.0,29.76,WSW,248,0.0,8.1,50,0.00,,OVC043,42.17,VWS V14.01,2013-02-20 12:41:00,
2013-02-20 07:46:00,27.3,11.1,29.76,West,270,13.0,13.0,50,0.00,,OVC043,42.17,VWS V14.01,2013-02-20 12:46:00,
2013-02-20 09:02:00,30.0,10.8,29.79,SSW,202,5.4,15.7,44,0.00,,OVC043,42.17,VWS V14.01,2013-02-20 14:02:00,
2013-02-20 09:07:00,30.7,10.9,29.79,West,270,12.1,12.1,43,0.00,,OVC043,42.17,VWS V14.01,2013-02-20 14:07:00,
2013-02-20 09:12:00,30.9,10.5,29.79,West,270,13.0,13.0,42,0.00,,OVC055,42.17,VWS V14.01,2013-02-20 14:12:00,
2013-02-20 09:17:00,30.4,10.1,29.79,SW,225,11.2,11.2,42,0.00,,OVC055,42.17,VWS V14.01,2013-02-20 14:17:00,
2013-02-20 09:22:00,29.5,9.2,29.79,WSW,248,4.9,11.6,42,0.00,,OVC055,42.17,VWS V14.01,2013-02-20 14:22:00,
2013-02-20 09:27:00,29.7,9.4,29.79,SSW,202,21.0,21.0,42,0.00,,OVC055,42.17,VWS V14.01,2013-02-20 14:27:00,
2013-02-20 09:32:00,29.5,9.2,29.79,WSW,248,13.0,13.0,42,0.00,,OVC055,42.17,VWS V14.01,2013-02-20 14:32:00,
2013-02-20 09:37:00,29.3,9.1,29.79,West,270,7.6,11.2,42,0.00,,OVC055,42.17,VWS V14.01,2013-02-20 14:37:00,
2013-02-20 09:42:00,28.9,8.7,29.79,SW,225,9.8,9.8,42,0.00,,SCT045,42.17,VWS V14.01,2013-02-20 14:42:00,
2013-02-20 09:47:00,28.6,8.4,29.79,WNW,292,14.3,14.3,42,0.00,,SCT045,42.17,VWS V14.01,2013-02-20 14:47:00,
2013-02-20 09:52:00,28.6,8.4,29.79,SW,225,10.7,19.7,42,0.00,,SCT045,42.17,VWS V14.01,2013-02-20 14:52:00,
2013-02-20 09:57:00,28.6,8.4,29.79,WNW,292,8.1,8.1,42,0.00,,SCT045,42.17,VWS V14.01,2013-02-20 14:57:00,
2013-02-20 10:02:00,29.1,8.9,29.79,SSW,202,13.9,13.9,42,0.00,,SCT045,42.17,VWS V14.01,2013-02-20 15:02:00,
2013-02-20 10:07:00,28.8,8.6,29.79,SW,225,7.6,12.5,42,0.00,,SCT045,42.17,VWS V14.01,2013-02-20 15:07:00,
2013-02-20 10:12:00,28.8,8.6,29.79,WSW,248,14.8,14.8,42,0.00,,SCT045,42.17,VWS V14.01,2013-02-20 15:12:00,
2013-02-20 10:17:00,29.7,9.4,29.79,SW,225,4.0,4.0,42,0.00,,SCT045,42.17,VWS V14.01,2013-02-20 15:17:00,
2013-02-20 10:22:00,29.8,9.6,29.76,NW,315,8.5,8.5,42,0.00,,SCT045,42.17,VWS V14.01,2013-02-20 15:22:00,
2013-02-20 10:27:00,29.8,9.0,29.76,SW,225,15.2,15.2,41,0.00,,SCT045,42.17,VWS V14.01,2013-02-20 15:27:00,
2013-02-20 10:32:00,30.7,9.8,29.76,WNW,292,5.4,5.4,41,0.00,,SCT045,42.17,VWS V14.01,2013-02-20 15:32:00,
2013-02-20 10:37:00,31.5,10.5,29.79,West,270,11.6,11.6,41,0.00,,SCT045,42.17,VWS V14.01,2013-02-20 15:37:00,
2013-02-20 10:43:00,30.7,9.8,29.79,NNE,22,4.5,11.2,41,0.00,,BKN048,42.17,VWS V14.01,2013-02-20 15:43:00,
2013-02-20 10:48:00,30.2,9.4,29.79,WSW,248,6.7,10.7,41,0.00,,BKN048,42.17,VWS V14.01,2013-02-20 15:48:00,
2013-02-20 10:53:00,30.6,9.7,29.79,SW,225,11.6,12.5,41,0.00,,BKN048,42.17,VWS V14.01,2013-02-20 15:53:00,
2013-02-20 10:58:00,29.8,9.0,29.79,SW,225,10.7,10.7,41,0.00,,BKN048,42.17,VWS V14.01,2013-02-20 15:58:00,
2013-02-20 11:03:00,30.6,9.7,29.79,SSW,202,6.3,6.3,41,0.00,,BKN048,42.17,VWS V14.01,2013-02-20 16:03:00,
2013-02-20 11:08:00,30.4,9.5,29.79,SSW,202,8.5,8.5,41,0.00,,BKN048,42.17,VWS V14.01,2013-02-20 16:08:00,
2013-02-20 11:13:00,31.1,10.2,29.79,West,270,5.8,5.8,41,0.00,,BKN048,42.17,VWS V14.01,2013-02-20 16:13:00,
2013-02-20 11:18:00,30.7,9.3,29.79,South,180,8.1,9.8,40,0.00,,BKN048,42.17,VWS V14.01,2013-02-20 16:18:00,
2013-02-20 11:23:00,31.8,10.8,29.79,WSW,248,7.2,12.1,41,0.00,,BKN048,42.17,VWS V14.01,2013-02-20 16:23:00,
2013-02-20 11:28:00,32.0,11.0,29.79,SW,225,10.7,10.7,41,0.00,,BKN048,42.17,VWS V14.01,2013-02-20 16:28:00,
2013-02-20 11:33:00,31.8,10.3,29.79,SW,225,7.2,7.2,40,0.00,,BKN048,0.00,VWS V14.01,2013-02-20 16:33:00,
2013-02-20 11:38:00,31.1,9.6,29.79,WSW,248,13.0,13.0,40,0.00,,BKN048,42.17,VWS V14.01,2013-02-20 16:38:00,
2013-02-20 11:43:00,30.4,9.0,29.79,West,270,8.5,8.5,40,0.00,,OVC055,42.17,VWS V14.01,2013-02-20 16:43:00,
2013-02-20 11:48:00,30.4,9.0,29.79,West,270,8.5,8.5,40,0.00,,OVC055,42.17,VWS V14.01,2013-02-20 16:48:00,
2013-02-20 11:53:00,29.8,9.0,29.79,WNW,292,6.3,8.5,41,0.00,,OVC055,42.17,VWS V14.01,2013-02-20 16:53:00,
2013-02-20 11:59:00,30.0,9.2,29.79,WSW,248,6.7,6.7,41,0.00,,OVC055,42.17,VWS V14.01,2013-02-20 16:59:00,
2013-02-20 12:04:00,30.0,9.2,29.79,SW,225,9.8,9.8,41,0.00,,OVC055,42.17,VWS V14.01,2013-02-20 17:04:00,
2013-02-20 12:09:00,31.6,10.6,29.76,WSW,248,11.6,11.6,41,0.00,,OVC055,42.17,VWS V14.01,2013-02-20 17:09:00,
2013-02-20 12:14:00,32.4,11.3,29.76,SSE,158,8.1,8.1,41,0.00,,OVC055,42.17,VWS V14.01,2013-02-20 17:14:00,
2013-02-20 12:19:00,31.8,10.3,29.76,SSW,202,11.2,11.2,40,0.00,,OVC055,42.17,VWS V14.01,2013-02-20 17:19:00,
2013-02-20 12:24:00,30.9,9.4,29.76,West,270,9.8,17.5,40,0.00,,OVC055,42.17,VWS V14.01,2013-02-20 17:24:00,
2013-02-20 12:29:00,32.2,10.6,29.76,NW,315,6.3,8.5,40,0.00,,OVC055,42.17,VWS V14.01,2013-02-20 17:29:00,
2013-02-20 12:34:00,32.4,11.3,29.76,SW,225,8.1,11.2,41,0.00,,OVC055,42.17,VWS V14.01,2013-02-20 17:34:00,
2013-02-20 12:40:00,31.6,10.1,29.76,WSW,248,6.3,6.3,40,0.00,,OVC055,42.17,VWS V14.01,2013-02-20 17:40:00,
2013-02-20 12:45:00,31.1,9.6,29.76,WSW,248,8.5,8.5,40,0.00,,OVC055,42.17,VWS V14.01,2013-02-20 17:45:00,
2013-02-20 12:50:00,31.1,9.6,29.76,SW,225,7.2,7.6,40,0.00,,OVC055,42.17,VWS V14.01,2013-02-20 17:50:00,
2013-02-20 12:55:00,30.2,9.4,29.76,West,270,9.8,9.8,41,0.00,,OVC055,42.17,VWS V14.01,2013-02-20 17:55:00,
2013-02-20 13:00:00,30.7,9.3,29.76,WSW,248,5.8,8.1,40,0.00,,OVC055,42.17,VWS V14.01,2013-02-20 18:00:00,
2013-02-20 13:05:00,29.8,9.0,29.76,WSW,248,14.8,14.8,41,0.00,,OVC055,42.17,VWS V14.01,2013-02-20 18:05:00,
2013-02-20 13:10:00,29.5,8.7,29.76,SW,225,6.7,6.7,41,0.00,,OVC055,42.17,VWS V14.01,2013-02-20 18:10:00,
2013-02-20 13:15:00,29.1,8.4,29.76,SSW,202,8.1,8.1,41,0.00,,OVC055,42.17,VWS V14.01,2013-02-20 18:15:00,
2013-02-20 13:20:00,28.8,8.6,29.76,SSW,202,10.7,10.7,42,0.00,,OVC055,42.17,VWS V14.01,2013-02-20 18:20:00,
2013-02-20 13:25:00,30.6,10.2,29.79,West,270,10.7,10.7,42,0.00,,OVC055,42.17,VWS V14.01,2013-02-20 18:25:00,
2013-02-20 13:30:00,32.2,11.7,29.79,NNW,338,5.8,6.7,42,0.00,,OVC055,42.17,VWS V14.01,2013-02-20 18:30:00,
2013-02-20 13:35:00,34.9,13.6,29.79,SW,225,6.3,6.3,41,0.00,,OVC055,42.17,VWS V14.01,2013-02-20 18:35:00,
2013-02-20 13:41:00,34.2,12.4,29.74,WSW,248,10.7,10.7,40,0.00,,BKN065,42.17,VWS V14.01,2013-02-20 18:41:00,
2013-02-20 13:46:00,32.9,11.8,29.74,SW,225,7.6,7.6,41,0.00,,BKN065,42.17,VWS V14.01,2013-02-20 18:46:00,
2013-02-20 13:51:00,34.2,12.4,29.74,SSW,202,11.6,11.6,40,0.00,,BKN065,42.17,VWS V14.01,2013-02-20 18:51:00,
2013-02-20 13:56:00,34.3,12.5,29.79,WSW,248,17.5,17.5,40,0.00,,BKN065,42.17,VWS V14.01,2013-02-20 18:56:00,
2013-02-20 14:02:00,33.8,12.1,29.79,NW,315,7.6,13.0,40,0.00,,BKN065,42.17,VWS V14.01,2013-02-20 19:02:00,
2013-02-20 14:07:00,35.4,13.5,29.79,SW,225,7.6,7.6,40,0.00,,BKN065,42.17,VWS V14.01,2013-02-20 19:07:00,
2013-02-20 14:12:00,34.5,12.7,29.76,SSW,202,15.7,15.7,40,0.00,,BKN065,42.17,VWS V14.01,2013-02-20 19:12:00,
2013-02-20 14:17:00,32.4,10.8,29.76,West,270,8.5,8.5,40,0.00,,BKN065,42.17,VWS V14.01,2013-02-20 19:17:00,
2013-02-20 14:23:00,31.1,9.6,29.76,West,270,12.1,12.1,40,0.00,,BKN065,42.17,VWS V14.01,2013-02-20 19:23:00,
2013-02-20 14:28:00,30.7,9.3,29.76,WSW,248,6.7,6.7,40,0.00,,BKN065,42.17,VWS V14.01,2013-02-20 19:28:00,
2013-02-20 14:33:00,31.1,9.6,29.76,West,270,12.1,12.1,40,0.00,,BKN065,42.17,VWS V14.01,2013-02-20 19:33:00,
2013-02-20 14:38:00,32.9,11.2,29.76,WSW,248,8.1,9.8,40,0.00,,BKN065,42.17,VWS V14.01,2013-02-20 19:38:00,
2013-02-20 14:43:00,32.7,11.1,29.76,NW,315,9.8,9.8,40,0.00,,BKN065,42.17,VWS V14.01,2013-02-20 19:43:00,
2013-02-20 14:48:00,31.5,9.9,29.76,West,270,12.5,12.5,40,0.00,,BKN065,42.17,VWS V14.01,2013-02-20 19:48:00,
2013-02-20 14:53:00,30.4,9.5,29.76,SW,225,12.1,12.1,41,0.00,,,42.17,VWS V14.01,2013-02-20 19:53:00,
2013-02-20 14:58:00,29.8,9.0,29.79,WSW,248,6.7,9.8,41,0.00,,,42.17,VWS V14.01,2013-02-20 19:58:00,
2013-02-20 15:03:00,29.5,8.7,29.79,West,270,5.8,5.8,41,0.00,,,42.17,VWS V14.01,2013-02-20 20:03:00,
2013-02-20 15:08:00,29.3,8.5,29.79,SSW,202,7.6,7.6,41,0.00,,,42.17,VWS V14.01,2013-02-20 20:08:00,
2013-02-20 15:13:00,29.3,8.5,29.79,SSW,202,10.7,10.7,41,0.00,,,42.17,VWS V14.01,2013-02-20 20:13:00,
2013-02-20 15:18:00,29.5,8.7,29.79,WSW,248,7.6,7.6,41,0.00,,,42.17,VWS V14.01,2013-02-20 20:18:00,
2013-02-20 15:23:00,28.8,8.0,29.79,West,270,12.5,12.5,41,0.00,,,42.17,VWS V14.01,2013-02-20 20:23:00,
2013-02-20 15:28:00,28.6,7.9,29.79,SSW,202,8.5,8.5,41,0.00,,,42.17,VWS V14.01,2013-02-20 20:28:00,
2013-02-20 15:33:00,28.2,8.1,29.79,WSW,248,11.6,11.6,42,0.00,,,42.17,VWS V14.01,2013-02-20 20:33:00,
2013-02-20 15:38:00,28.0,7.9,29.79,SW,225,6.3,6.3,42,0.00,,,42.17,VWS V14.01,2013-02-20 20:38:00,
2013-02-20 15:43:00,28.0,7.9,29.79,WNW,292,8.5,8.5,42,0.00,,,42.17,VWS V14.01,2013-02-20 20:43:00,
2013-02-20 15:48:00,28.2,8.6,29.79,NNW,338,7.2,7.2,43,0.00,,,42.17,VWS V14.01,2013-02-20 20:48:00,
2013-02-20 15:53:00,27.9,8.3,29.79,SSW,202,4.9,4.9,43,0.00,,,42.17,VWS V14.01,2013-02-20 20:53:00,
2013-02-20 15:59:00,28.4,8.8,29.79,North,0,9.8,9.8,43,0.00,,,42.17,VWS V14.01,2013-02-20 20:59:00,
2013-02-20 16:04:00,28.2,8.6,29.79,West,270,6.7,6.7,43,0.00,,,42.17,VWS V14.01,2013-02-20 21:04:00,
2013-02-20 16:09:00,28.0,8.4,29.79,SW,225,9.8,12.1,43,0.00,,,42.17,VWS V14.01,2013-02-20 21:09:00,
2013-02-20 16:14:00,27.9,8.3,29.79,SW,225,8.5,8.5,43,0.00,,,42.17,VWS V14.01,2013-02-20 21:14:00,
2013-02-20 16:19:00,27.9,7.8,29.79,West,270,7.6,7.6,42,0.00,,,42.17,VWS V14.01,2013-02-20 21:19:00,
2013-02-20 16:24:00,27.7,7.6,29.79,SSW,202,8.5,8.5,42,0.00,,,42.17,VWS V14.01,2013-02-20 21:24:00,
2013-02-20 16:29:00,27.7,7.6,29.79,SW,225,3.1,11.6,42,0.00,,,42.17,VWS V14.01,2013-02-20 21:29:00,
2013-02-20 16:34:00,27.5,7.4,29.79,SSW,202,7.2,7.2,42,0.00,,,42.17,VWS V14.01,2013-02-20 21:34:00,
2013-02-20 16:39:00,27.5,7.4,29.79,ENE,68,6.7,6.7,42,0.00,,,42.17,VWS V14.01,2013-02-20 21:39:00,
2013-02-20 16:44:00,27.5,7.4,29.79,WNW,292,5.4,6.3,42,0.00,,OVC060,42.17,VWS V14.01,2013-02-20 21:44:00,
2013-02-20 16:49:00,27.1,7.6,29.79,West,270,7.6,7.6,43,0.00,,OVC060,42.17,VWS V14.01,2013-02-20 21:49:00,
2013-02-20 16:54:00,27.0,7.5,29.82,NNE,22,4.0,8.1,43,0.00,,OVC060,42.17,VWS V14.01,2013-02-20 21:54:00,
2013-02-20 16:59:00,26.8,7.8,29.82,SW,225,13.4,13.4,44,0.00,,OVC060,42.17,VWS V14.01,2013-02-20 21:59:00,
2013-02-20 17:04:00,26.6,8.1,29.82,West,270,6.7,13.4,45,0.00,,OVC060,42.17,VWS V14.01,2013-02-20 22:04:00,
2013-02-20 17:09:00,26.4,8.0,29.82,West,270,6.7,6.7,45,0.00,,OVC060,42.17,VWS V14.01,2013-02-20 22:09:00,
2013-02-20 17:15:00,26.2,7.8,29.82,WNW,292,12.5,17.5,45,0.00,,OVC060,42.17,VWS V14.01,2013-02-20 22:15:00,
2013-02-20 17:20:00,26.1,7.2,29.82,WSW,248,8.1,8.1,44,0.00,,OVC060,42.17,VWS V14.01,2013-02-20 22:20:00,
2013-02-20 17:25:00,26.1,7.2,29.82,WSW,248,12.1,12.1,44,0.00,,OVC060,42.17,VWS V14.01,2013-02-20 22:25:00,
2013-02-20 17:30:00,26.1,7.2,29.82,WSW,248,12.1,12.1,44,0.00,,OVC060,42.17,VWS V14.01,2013-02-20 22:30:00,
2013-02-20 17:35:00,25.9,7.0,29.82,WSW,248,8.5,8.5,44,0.00,,OVC060,42.17,VWS V14.01,2013-02-20 22:35:00,
2013-02-20 17:40:00,25.7,6.8,29.85,WNW,292,6.7,6.7,44,0.00,,OVC060,42.17,VWS V14.01,2013-02-20 22:40:00,
2013-02-20 17:45:00,25.5,6.2,29.85,SW,225,10.7,10.7,43,0.00,,OVC070,42.17,VWS V14.01,2013-02-20 22:45:00,
2013-02-20 17:50:00,25.3,6.0,29.85,WSW,248,8.5,9.4,43,0.00,,OVC070,42.17,VWS V14.01,2013-02-20 22:50:00,
2013-02-20 17:55:00,25.2,5.8,29.85,WSW,248,8.5,8.5,43,0.00,,OVC070,42.17,VWS V14.01,2013-02-20 22:55:00,
2013-02-20 18:00:00,24.8,5.5,29.85,West,270,4.0,9.4,43,0.00,,OVC070,42.17,VWS V14.01,2013-02-20 23:00:00,
2013-02-20 18:05:00,24.4,5.2,29.85,SW,225,8.1,8.1,43,0.00,,OVC070,42.17,VWS V14.01,2013-02-20 23:05:00,
2013-02-20 18:10:00,24.4,5.2,29.82,South,180,5.4,5.4,43,0.00,,OVC070,42.17,VWS V14.01,2013-02-20 23:10:00,
2013-02-20 18:15:00,24.3,5.0,29.82,NNW,338,8.1,8.1,43,0.00,,OVC070,42.17,VWS V14.01,2013-02-20 23:15:00,
2013-02-20 18:20:00,24.1,4.8,29.82,WSW,248,10.7,10.7,43,0.00,,OVC070,42.17,VWS V14.01,2013-02-20 23:20:00,
2013-02-20 18:25:00,23.9,5.2,29.85,WNW,292,5.8,5.8,44,0.00,,OVC070,42.17,VWS V14.01,2013-02-20 23:25:00,
2013-02-20 18:31:00,23.9,5.2,29.85,WNW,292,17.5,17.5,44,0.00,,OVC070,42.17,VWS V14.01,2013-02-20 23:31:00,
2013-02-20 18:36:00,23.9,5.2,29.85,West,270,10.7,10.7,44,0.00,,OVC070,42.17,VWS V14.01,2013-02-20 23:36:00,
2013-02-20 18:41:00,23.7,5.0,29.85,SW,225,6.7,6.7,44,0.00,,OVC060,42.17,VWS V14.01,2013-02-20 23:41:00,
2013-02-20 18:46:00,23.5,4.8,29.85,SW,225,7.6,7.6,44,0.00,,OVC060,42.17,VWS V14.01,2013-02-20 23:46:00,
2013-02-20 18:51:00,23.5,4.8,29.85,SSW,202,7.2,7.2,44,0.00,,OVC060,42.17,VWS V14.01,2013-02-20 23:51:00,
2013-02-20 18:56:00,23.4,5.2,29.85,SW,225,6.7,7.6,45,0.00,,OVC060,42.17,VWS V14.01,2013-02-20 23:56:00,
2013-02-20 19:01:00,23.2,5.0,29.85,SW,225,4.9,6.3,45,0.00,,OVC060,42.17,VWS V14.01,2013-02-21 00:01:00,
2013-02-20 19:06:00,23.2,5.0,29.85,WSW,248,8.5,8.5,45,0.00,,OVC060,42.17,VWS V14.01,2013-02-21 00:06:00,
2013-02-20 19:11:00,23.0,5.3,29.88,West,270,2.2,4.0,46,0.00,,SCT050,42.17,VWS V14.01,2013-02-21 00:11:00,
2013-02-20 19:16:00,22.8,5.2,29.88,West,270,7.2,7.2,46,0.00,,SCT050,42.17,VWS V14.01,2013-02-21 00:16:00,
2013-02-20 19:21:00,23.0,5.3,29.88,West,270,13.0,13.0,46,0.00,,SCT050,42.17,VWS V14.01,2013-02-21 00:21:00,
2013-02-20 19:26:00,23.2,5.0,29.88,SW,225,11.6,11.6,45,0.00,,SCT050,42.17,VWS V14.01,2013-02-21 00:26:00,
2013-02-20 19:31:00,23.0,4.8,29.88,SW,225,8.5,8.5,45,0.00,,SCT050,42.17,VWS V14.01,2013-02-21 00:31:00,
2013-02-20 19:36:00,23.2,5.0,29.88,WSW,248,8.1,8.5,45,0.00,,SCT050,42.17,VWS V14.01,2013-02-21 00:36:00,
2013-02-20 19:41:00,23.2,5.0,29.91,SW,225,8.5,21.5,45,0.00,,SCT050,42.17,VWS V14.01,2013-02-21 00:41:00,
2013-02-20 19:46:00,23.2,5.0,29.91,SW,225,8.5,8.5,45,0.00,,SCT050,42.17,VWS V14.01,2013-02-21 00:46:00,
2013-02-20 19:51:00,23.2,5.0,29.91,SSW,202,17.5,20.1,45,0.00,,SCT050,42.17,VWS V14.01,2013-02-21 00:51:00,
2013-02-20 19:56:00,23.0,4.8,29.91,WNW,292,7.6,7.6,45,0.00,,SCT050,42.17,VWS V14.01,2013-02-21 00:56:00,
2013-02-20 20:01:00,23.0,4.8,29.91,SSW,202,9.8,9.8,45,0.00,,SCT050,42.17,VWS V14.01,2013-02-21 01:01:00,
2013-02-20 20:06:00,22.8,4.7,29.91,WSW,248,9.4,9.4,45,0.00,,SCT050,42.17,VWS V14.01,2013-02-21 01:06:00,
2013-02-20 20:11:00,22.8,4.7,29.91,SSW,202,13.0,13.0,45,0.00,,SCT050,42.17,VWS V14.01,2013-02-21 01:11:00,
2013-02-20 20:16:00,22.8,4.7,29.91,WSW,248,4.9,5.8,45,0.00,,SCT050,42.17,VWS V14.01,2013-02-21 01:16:00,
2013-02-20 20:22:00,22.8,4.7,29.91,SW,225,7.2,7.2,45,0.00,,SCT050,42.17,VWS V14.01,2013-02-21 01:22:00,
2013-02-20 20:27:00,22.8,4.7,29.91,SW,225,7.2,7.2,45,0.00,,SCT050,42.17,VWS V14.01,2013-02-21 01:27:00,
2013-02-20 20:32:00,22.6,4.5,29.91,SSW,202,10.7,10.7,45,0.00,,SCT050,42.17,VWS V14.01,2013-02-21 01:32:00,
2013-02-20 20:37:00,22.6,4.5,29.91,SSW,202,7.2,9.0,45,0.00,,SCT050,42.17,VWS V14.01,2013-02-21 01:37:00,
2013-02-20 20:42:00,22.6,4.5,29.91,SW,225,9.0,12.5,45,0.00,,FEW047,42.17,VWS V14.01,2013-02-21 01:42:00,
2013-02-20 20:47:00,22.6,4.5,29.91,West,270,6.7,6.7,45,0.00,,FEW047,42.17,VWS V14.01,2013-02-21 01:47:00,
2013-02-20 20:52:00,22.6,4.5,29.91,South,180,9.8,9.8,45,0.00,,FEW047,42.17,VWS V14.01,2013-02-21 01:52:00,
2013-02-20 20:57:00,22.6,4.5,29.91,SW,225,15.2,15.2,45,0.00,,FEW047,42.17,VWS V14.01,2013-02-21 01:57:00,
2013-02-20 21:02:00,22.6,4.5,29.91,SW,225,6.7,7.2,45,0.00,,FEW047,42.17,VWS V14.01,2013-02-21 02:02:00,
2013-02-20 21:07:00,22.5,4.3,29.91,NW,315,6.3,6.3,45,0.00,,FEW047,42.17,VWS V14.01,2013-02-21 02:07:00,
2013-02-20 21:12:00,22.5,4.3,29.91,WSW,248,9.8,9.8,45,0.00,,FEW047,42.17,VWS V14.01,2013-02-21 02:12:00,
2013-02-20 21:17:00,22.5,4.3,29.91,WSW,248,8.5,8.5,45,0.00,,FEW047,42.17,VWS V14.01,2013-02-21 02:17:00,
2013-02-20 21:22:00,22.5,4.3,29.91,West,270,6.3,8.5,45,0.00,,FEW047,42.17,VWS V14.01,2013-02-21 02:22:00,
2013-02-20 21:27:00,22.5,4.8,29.91,WSW,248,6.3,9.8,46,0.00,,FEW047,42.17,VWS V14.01,2013-02-21 02:27:00,
2013-02-20 21:32:00,22.3,4.7,29.91,WNW,292,5.4,9.0,46,0.00,,FEW047,42.17,VWS V14.01,2013-02-21 02:32:00,
2013-02-20 21:37:00,22.3,4.7,29.91,WNW,292,6.7,7.2,46,0.00,,FEW047,42.17,VWS V14.01,2013-02-21 02:37:00,
2013-02-20 21:42:00,22.3,4.7,29.88,SW,225,12.5,12.5,46,0.00,,CLR,42.17,VWS V14.01,2013-02-21 02:42:00,
2013-02-20 21:47:00,22.3,4.7,29.88,NNW,338,6.7,7.2,46,0.00,,CLR,42.17,VWS V14.01,2013-02-21 02:47:00,
2013-02-20 21:52:00,22.3,4.7,29.88,West,270,4.9,7.2,46,0.00,,CLR,42.17,VWS V14.01,2013-02-21 02:52:00,
2013-02-20 21:57:00,22.1,4.5,29.85,ESE,112,4.9,12.5,46,0.00,,CLR,42.17,VWS V14.01,2013-02-21 02:57:00,
2013-02-20 22:02:00,22.1,4.5,29.85,SSE,158,4.0,8.1,46,0.00,,CLR,42.17,VWS V14.01,2013-02-21 03:02:00,
2013-02-20 22:07:00,22.1,4.5,29.88,SE,135,4.0,4.0,46,0.00,,CLR,42.17,VWS V14.01,2013-02-21 03:07:00,
2013-02-20 22:12:00,22.1,4.5,29.88,NNW,338,7.2,7.6,46,0.00,,CLR,42.17,VWS V14.01,2013-02-21 03:12:00,
2013-02-20 22:17:00,22.1,5.0,29.88,South,180,11.6,11.6,47,0.00,,CLR,42.17,VWS V14.01,2013-02-21 03:17:00,
2013-02-20 22:22:00,22.1,5.0,29.88,WSW,248,15.7,15.7,47,0.00,,CLR,42.17,VWS V14.01,2013-02-21 03:22:00,
2013-02-20 22:27:00,22.3,4.7,29.88,NW,315,7.2,7.2,46,0.00,,CLR,0.00,VWS V14.01,2013-02-21 03:27:00,
2013-02-20 22:33:00,22.3,5.1,29.88,North,0,4.9,5.8,47,0.00,,CLR,0.00,VWS V14.01,2013-02-21 03:33:00,
2013-02-20 22:38:00,22.3,4.7,29.91,SW,225,5.8,5.8,46,0.00,,CLR,42.17,VWS V14.01,2013-02-21 03:38:00,
2013-02-20 22:43:00,22.5,5.3,29.91,NNW,338,9.4,9.8,47,0.00,,CLR,42.17,VWS V14.01,2013-02-21 03:43:00,
2013-02-20 22:48:00,22.5,5.3,29.91,WSW,248,5.4,5.4,47,0.00,,CLR,42.17,VWS V14.01,2013-02-21 03:48:00,
2013-02-20 22:53:00,22.5,5.3,29.94,SSW,202,5.8,7.6,47,0.00,,CLR,42.17,VWS V14.01,2013-02-21 03:53:00,
2013-02-20 22:58:00,22.5,5.3,29.94,NNE,22,8.5,9.8,47,0.00,,CLR,42.17,VWS V14.01,2013-02-21 03:58:00,
2013-02-20 23:03:00,22.6,5.5,29.94,SSW,202,7.2,7.2,47,0.00,,CLR,42.17,VWS V14.01,2013-02-21 04:03:00,
2013-02-20 23:08:00,22.6,5.5,29.91,SW,225,13.0,13.0,47,0.00,,CLR,42.17,VWS V14.01,2013-02-21 04:08:00,
2013-02-20 23:13:00,22.6,5.5,29.91,SW,225,8.1,8.1,47,0.00,,CLR,42.17,VWS V14.01,2013-02-21 04:13:00,
2013-02-20 23:18:00,22.8,5.6,29.91,North,0,7.2,7.6,47,0.00,,CLR,42.17,VWS V14.01,2013-02-21 04:18:00,
2013-02-20 23:23:00,22.8,5.6,29.91,SSW,202,6.3,8.5,47,0.00,,CLR,42.17,VWS V14.01,2013-02-21 04:23:00,
2013-02-20 23:28:00,22.8,5.6,29.91,SW,225,7.2,7.2,47,0.00,,CLR,42.17,VWS V14.01,2013-02-21 04:28:00,
2013-02-20 23:33:00,22.8,5.6,29.91,South,180,2.2,4.9,47,0.00,,CLR,42.17,VWS V14.01,2013-02-21 04:33:00,
2013-02-20 23:38:00,22.8,5.6,29.91,SSW,202,6.3,6.3,47,0.00,,CLR,42.17,VWS V14.01,2013-02-21 04:38:00,
2013-02-20 23:43:00,22.8,5.6,29.91,SSW,202,4.0,6.7,47,0.00,,CLR,42.17,VWS V14.01,2013-02-21 04:43:00,
2013-02-20 23:48:00,22.8,5.6,29.91,NNW,338,5.8,5.8,47,0.00,,CLR,42.17,VWS V14.01,2013-02-21 04:48:00,
2013-02-20 23:53:00,22.8,5.6,29.94,NW,315,4.0,4.9,47,0.00,,CLR,42.17,VWS V14.01,2013-02-21 04:53:00,
2013-02-20 23:58:00,22.8,5.6,29.94,NW,315,6.7,6.7,47,0.00,,CLR,42.17,VWS V14.01,2013-02-21 04:58:00,